Погода Дзерджинское

Погода Дзерджинское : погода сейчас, прогноз погоды и архив. Всё, что Вы хотите узнать о погоде Дзерджинское!

Хотите узнать прогноз погоды Дзерджинское? Тогда Вам сюда: Погода Дзерджинское

Поиск расширенной информации на нашем сайте:

Другие новости

Новости СМИ2

Главная страница сайта

Новости сайта

02.10.2013

Напоминаем, что на нашем новом сайте вы можете получить высокодетализированные прогнозы погоды по пунктам России, СНГ и мира (включающие важные для авиации метеовеличины, такие как направление и скорость ветра, видимость, явления погоды, количество и форма облачности, нижняя и верхняя граница облачности), а также ознакомиться с разнообразными материалами по авиационной метеорологии и подборкой полезных ссылок на эту тему.

Сайт Метеоцентр.Азия посвящён разработке технологий оптимизации авиаметеорологического обслуживания, включая проектирование и перспективное создание нескольких автоматизированных авиаметеорологических систем:
- система выпуска высокодетальных прогностических карт явлений погоды для нижнего воздушного пространства по России и ближнему зарубежью;
- система верификации прогнозов TAF (выпускаемых синоптиками официальных АМСГ РФ и ближнего зарубежья) и AUTOTAF (выпускаемых сайтом Метеоцентр.Азия) - выявление ошибок, онлайн-сопоставление с фактической погодой METAR, автоматическое внесение коррективов в прогнозы при резком отклонении фактической погоды от прогноза, подсчёт оправдываемости прогнозов по элементам и в целом;
- система обработки, анализа и отображения авиаметеорологической информации для применения провайдерами метеорологической информации.

Рекомендуем: Ремонт husqvarna проблема с хускварной husqvarna.

Погода Дзерджинское - сегодня

Время (UTC), дата Ветер
(°,м/с) 
Видим.   Явления Облачность Т
(°С)
Тd
(°С)
f(%) Тe
(°С)
Pmin
(гПа)
dP
(гПа)
Po
(мм)
O2
(г/м3)
Тmin Tmax R s Состояние
почвы
12 13.01.17 тихо ()   20000 м  {ливн. осадки}  4/0 верхняя 
[Ci fib]
-19.2 -19.8 95 -19  1031  0.6  754  328    -15.6  0.0     
15 13.01.17 160 (Ю) 20000 м    10/0 верхняя 
[Cs]
-23.2 -24.6 88 -24  1031.4  0.1  754  334           
18 13.01.17 150 (ЮВ) 20000 м    ясно 
-26.7 -28.6 84 -27  1031.6  -0.2  754  339           
21 13.01.17 150 (ЮВ) 10 км  слаб. ливневой снег  9/9 600 м кучево-дожд. 
[Cb calv]
-22.8 -24.3 87 -23  1031.1  754  333           
00 14.01.17 тихо ()   10 км  слаб. снег{ливн. осадки}  10/0 средняя 
[As op]
-18.1 -19 93 -18  1030.6  -0.1  754  327  -27.5    0.3  36  равномерный
сухой снег
100% 
03 14.01.17 тихо ()   20000 м  в посл. час снег  10/0 средняя 
[As op]
-20.5 -21.7 90 -21  1031.8  0.9  754  330           
06 14.01.17 тихо ()   20000 м  {снег}  10/10 2000 м 
[As trans]
-17.4 -19 87 -17  1031.3  0.1  754  326           
09 14.01.17 160 (Ю) 20000 м    10/0 верхняя 
[Cs]
-16.6 -17.8 90 -17  1032.3  755  325           
12 14.01.17 130 (ЮВ) 20000 м    ясно 
-22.3 -23.3 92 -23  1033.9  756  333    -15.7  0.4     
15 14.01.17 140 (ЮВ) 20000 м    4/0 верхняя 
[Ci fib]
-24.5 -26.1 86 -25  1034.1  -0.1  756  336           
18 14.01.17 160 (Ю) 20000 м    10/0 верхняя 
[Cs]
-25.5 -27.3 85 -26  1033.5  -0.7  755  337           
21 14.01.17 130 (ЮВ) 20000 м    10/0 верхняя 
[Cs]
-20.5 -21.8 89 -21  1032.3  -0.6  755  330           
00 15.01.17 140 (ЮВ) 10 км  слаб. снег  10/0 средняя 
[As op]
-18.3 -19.2 93 -19  1030.9  -1.1  754  327  -26    0.2  37  равномерный
сухой снег
100% 
03 15.01.17 150 (ЮВ) 10 км  слаб. снег  10/0 средняя 
[As op]
-17.9 -18.9 92 -18  1030.8  -0.1  754  327           
06 15.01.17 160 (Ю) 20000 м  {снег}  10/0 средняя 
[As op]
-17.1 -18.8 87 -17  1031.2  0.5  754  326           
09 15.01.17 тихо ()   20000 м    10/0 верхняя 
[Cs]
-18.8 -20.1 89 -19  1033.1  1.7  756  329           
12 15.01.17 тихо ()   20000 м    ясно 
-25.9 -27.7 85 -26  1036.6  2.6  758  339    -16.3  0.3     
15 15.01.17 тихо ()   20000 м    ясно 
-28.5 -30.8 81 -29  1038.6  1.7  759  343           
18 15.01.17 тихо ()   20000 м    10/0 верхняя 
[Cs]
-30.5 -33 79 -31  1040.7  1.8  760  347           
21 15.01.17 тихо ()   20000 м    10/0 верхняя 
[Cs]
-31.5 -34.2 77 -32  1042.5  1.6  761  349           
00 16.01.17 тихо ()   20000 м    10/0 верхняя 
[Cs]
-32.9 -35.7 76 -33    1.1  762  351           
03 16.01.17 тихо ()   10 км  слаб. снег  10/0 верхняя 
[Cs]
-33.1 -36.1 74 -33  1045.1  1.2  763  352  -33.9         
06 16.01.17 290 (З) 20000 м  {снег}  10/0 верхняя 
[Cs]
-29.5 -32.2 77 -30  1044.1  -0.5  763  347           
09 16.01.17 тихо ()   20000 м    ясно 
-28.3 -30.8 79 -28  1044.2  0.2  763  345           
12 16.01.17 тихо ()   20000 м    ясно 
-34 -37 74 -34  1045.7  0.8  764  353    -27.5  0.6     
Время (UTC), дата Ветер
(°,м/с) 
Видим.   Явления Облачность Т
(°С)
Тd
(°С)
f(%) Тe
(°С)
Pmin
(гПа)
dP
(гПа)
Po
(мм)
O2
(г/м3)
Тmin Tmax R s Состояние
почвы

Для получения пояснительной информации подведите курсор к названию столбца.

ПОГОДА Дзерджинское - архив

Всё, что Вы хотите узнать о погоде Дзерджинское - удобно и подробно!

Выберите нужную дату (начиная с 1 января 2015* года) и нажмите кнопку "Найти".
Будут отображены архивные сводки погоды по пункту Дзерджинское, начиная с указанной даты.


Отображать данные в формате CSV (для использования в таблицах Excel)


Внимание! Наш архив погоды предназначен исключительно для личного некоммерческого использования в познавательных целях. Если Вам необходимы официальные справки о состоянии погоды (для производственных, юридических, коммерческих и т.п. целей), обращайтесь в органы Росгидромета.

*Примечание: данная дата относится к архиву по метеостанциям СССР (Россия, СНГ, Балтия).
Архив по метеостанциям Зарубежной Европы и Азии (кроме Китая) хранится 10 дней, по другим регионам земного шара (Китай, Африка, Америка, Австралия, Океания) - 1 день.

Дзерджинское - район местоположения метеостанции


Название, широта, долгота, высота метеостанции:
Дзерджинское 56.9°ш. 95.2°д. 188 м над ур. моря [Российская Федерация]

Дополнительная информация

В oтличие oт бoльшинства пoгoдных сайтoв мы публикуем пoдрoбную метеoинфoрмацию в детальнoм прoфессиoнальнoм фoрмате.

Характеристики температуры и влажнoсти вoздуха измеряются на высoте 2 м в тени вдали oт зданий и деревьев.
Скoрoсть ветра измеряется на высoте 10 м (на урoвне рoста челoвека скoрoсть ветра ниже в 1.5-2 раза). Если метеoстанция нахoдится в гoрoде или в лесу, тo скoрoсть ветра занижена на 2-4 м/с пo сравнению с oткрытым местoм. Скoрoсть ветра над акватoриями крупных рек и oзёр, а также на вершинах хoлмoв на 2-5 м/с выше, чем в oбычных услoвиях.
Атмoсфернoе давление в разных тoчках местнoсти мoжет значительнo oтличаться oт давления на метеoстанции, в зависимoсти oт услoвий рельефа (при пoдъёме на 10 м давление пoнижается примернo на 1 мм рт.ст.).